Powrót do katalogu

FENGYUN 2C DEB

LostMEO
NORAD 40000·DEBRIS·🇨🇳 China

Wystrzelony Oct 19, 2004 z Xichang Satellite Launch Center

Loading…

Następne Przeloty (najbliższe 24 godziny)

TLE

NieaktualneSource: Space-Track

Epoka: Mar 21, 2026, 10:29 UTC

1 40000U 04042D   26080.43694546  .00000072  00000-0  00000-0 0  9990
2 40000  12.6402  20.3576 0198751  71.1279 290.9952  1.00297433 11706

Śledź FENGYUN 2C DEB w czasie rzeczywistym z AllMySat

Download on the App Store